Date String (YYYY-MM-DD hh:mm:ss) UTC,Instrument flags,absolute air pressure of the measurement (hPa),sample flow rate (lpm),inlet stack bypass flow (lpm),air temperature of the measurement (°C),ambient temperature measured by the external sensor (°C),aerosol sample conditioner tube jacket temperature (°C),OPC LED temperature (°C),internal box temperature (°C),relative humidity of the measurement (%),span deviation,mass concentration of particles derived from Lorenz-Mie calculation of OPC scattering (μg/m³),mass concentration of particles derived from Lorenz-Mie calculation of OPC scattering (μg/m³),mass concentration of particles derived from Lorenz-Mie calculation of OPC scattering (μg/m³)
DateTimeUTC,F1_M11,P_M11,Q1_M11,Q2_M11,T1_M11,T2_M11,T3_M11,T4_M11,T5_M11,U1_M11,ZSPAN_M11,X0_M11,X2_M11,X1_M11
2023-06-19 11:00:00,SystemResetWarning,0824.5,5.00,000.00,030.3,028.6,000.0,038.8,031.7,14.0,0000.0,0008.09,0004.07,0003.27
2023-06-19 11:01:00,SystemResetWarning,0824.5,5.00,000.00,030.3,028.6,000.0,038.8,031.7,14.1,0000.0,0008.09,0004.05,0003.28
2023-06-19 11:02:00,SystemResetWarning,0824.6,5.00,000.00,030.3,028.6,000.0,038.8,031.7,14.1,0000.0,0008.22,0004.10,0003.28
2023-06-19 11:03:00,SystemResetWarning,0824.7,5.00,000.00,030.3,028.6,000.0,038.8,031.8,14.1,0000.0,0008.25,0004.14,0003.29
2023-06-19 11:04:00,SystemResetWarning,0824.7,5.00,000.00,030.3,028.6,000.0,038.8,031.7,14.3,0000.0,0008.40,0004.18,0003.29
2023-06-19 11:05:00,SystemResetWarning,0824.7,5.00,000.00,030.3,028.6,000.0,038.8,031.8,14.5,0000.0,0008.33,0004.19,0003.29
2023-06-19 11:06:00,SystemResetWarning,0824.6,5.00,000.00,030.3,028.6,000.0,038.8,031.8,14.3,0000.0,0008.36,0004.19,0003.29
2023-06-19 11:07:00,SystemResetWarning,0824.6,5.00,000.00,030.3,028.6,000.0,038.8,031.8,13.8,0000.0,0008.39,0004.18,0003.29
2023-06-19 11:08:00,SystemResetWarning,0824.6,5.00,000.00,030.3,028.6,000.0,038.9,031.8,14.0,0000.0,0008.69,0004.21,0003.29
2023-06-19 11:09:00,SystemResetWarning,0824.6,5.00,000.00,030.3,028.6,000.0,038.9,031.8,13.7,0000.0,0008.59,0004.19,0003.28
2023-06-19 11:10:00,SystemResetWarning,0824.6,5.00,000.00,030.3,028.6,000.0,038.9,031.7,13.6,0000.0,0008.49,0004.16,0003.28
2023-06-19 11:11:00,SystemResetWarning,0824.6,5.00,000.00,030.3,028.7,000.0,038.9,031.7,13.7,0000.0,0008.82,0004.17,0003.28
2023-06-19 11:12:00,SystemResetWarning,0824.5,5.00,000.00,030.3,028.7,000.0,038.9,031.8,13.4,0000.0,0008.92,0004.21,0003.29
2023-06-19 11:13:00,SystemResetWarning,0824.6,5.00,000.00,030.4,028.7,000.0,038.9,031.8,13.4,0000.0,0009.76,0004.23,0003.29
2023-06-19 11:14:00,SystemResetWarning,0824.7,5.00,000.00,030.4,028.7,000.0,038.9,031.8,13.6,0000.0,0010.30,0004.20,0003.29
2023-06-19 11:15:00,SystemResetWarning,0824.6,4.99,000.00,030.4,028.7,000.0,038.9,031.9,13.9,0000.0,0010.14,0004.18,0003.31
2023-06-19 11:16:00,SystemResetWarning,0824.6,5.00,000.00,030.4,028.7,000.0,038.9,031.8,13.9,0000.0,0010.86,0004.23,0003.32
2023-06-19 11:17:00,SystemResetWarning,0824.7,5.00,000.00,030.4,028.7,000.0,038.9,031.8,14.0,0000.0,0011.50,0004.26,0003.32
2023-06-19 11:18:00,SystemResetWarning,0824.7,5.00,000.00,030.4,028.7,000.0,038.9,031.8,14.0,0000.0,0011.60,0004.29,0003.33
2023-06-19 11:19:00,SystemResetWarning,0824.7,5.00,000.00,030.4,028.7,000.0,038.9,031.8,14.0,0000.0,0011.45,0004.26,0003.34
2023-06-19 11:20:00,SystemResetWarning,0824.7,5.00,000.00,030.4,028.7,000.0,038.9,031.8,13.8,0000.0,0012.78,0004.26,0003.35
2023-06-19 11:21:00,SystemResetWarning,0824.7,5.00,000.00,030.4,028.7,000.0,038.9,031.9,13.9,0000.0,0012.99,0004.26,0003.35
2023-06-19 11:22:00,SystemResetWarning,0824.7,5.00,000.00,030.4,028.7,000.0,038.9,031.9,15.7,0000.0,0012.82,0004.30,0003.35
2023-06-19 11:23:00,SystemResetWarning,0824.7,5.00,000.00,030.4,028.7,000.0,039.0,031.8,16.2,0000.0,0012.88,0004.30,0003.35
2023-06-19 11:24:00,SystemResetWarning,0824.8,5.00,000.00,030.4,028.8,000.0,039.0,031.9,15.5,0000.0,0011.90,0004.27,0003.36
2023-06-19 11:25:00,SystemResetWarning,0824.7,5.00,000.00,030.4,028.8,000.0,039.0,031.9,14.6,0000.0,0011.29,0004.26,0003.37
2023-06-19 11:26:00,SystemResetWarning,0824.8,5.00,000.00,030.4,028.8,000.0,039.0,031.9,14.6,0000.0,0011.55,0004.26,0003.38
2023-06-19 11:27:00,SystemResetWarning,0824.8,5.00,000.00,030.4,028.8,000.0,039.0,031.9,14.8,0000.0,0011.46,0004.21,0003.38
2023-06-19 11:28:00,SystemResetWarning,0824.8,5.00,000.00,030.5,028.8,000.0,039.0,031.9,14.7,0000.0,0011.27,0004.21,0003.39
2023-06-19 11:29:00,SystemResetWarning,0824.8,5.00,000.00,030.5,028.8,000.0,039.0,031.9,13.8,0000.0,0011.17,0004.20,0003.40
2023-06-19 11:30:00,SystemResetWarning,0824.8,5.00,000.00,030.5,028.8,000.0,039.0,031.9,13.6,0000.0,0011.06,0004.19,0003.40
2023-06-19 11:31:00,SystemResetWarning,0824.8,4.99,000.00,030.5,028.8,000.0,039.0,031.9,14.2,0000.0,0009.71,0004.16,0003.39
2023-06-19 11:32:00,SystemResetWarning,0824.8,5.00,000.00,030.5,028.8,000.0,039.0,031.9,14.1,0000.0,0009.76,0004.22,0003.40
2023-06-19 11:33:00,SystemResetWarning,0824.9,5.00,000.00,030.5,028.8,000.0,039.0,031.9,14.0,0000.0,0009.70,0004.24,0003.41
2023-06-19 11:34:00,SystemResetWarning,0824.9,5.00,000.00,030.5,028.8,000.0,039.0,032.0,14.1,0000.0,0009.54,0004.21,0003.41
2023-06-19 11:35:00,SystemResetWarning,0824.9,5.00,000.00,030.5,028.8,000.0,039.0,031.9,14.4,0000.0,0009.73,0004.22,0003.42
2023-06-19 11:36:00,SystemResetWarning,0824.9,5.00,000.00,030.5,028.8,000.0,039.1,032.0,14.2,0000.0,0009.88,0004.22,0003.42
2023-06-19 11:37:00,SystemResetWarning,0824.8,5.00,000.00,030.5,028.9,000.0,039.1,032.0,14.2,0000.0,0009.96,0004.25,0003.42
2023-06-19 11:38:00,SystemResetWarning,0824.8,5.00,000.00,030.5,028.9,000.0,039.1,032.0,14.1,0000.0,0010.16,0004.27,0003.42
2023-06-19 11:39:00,SystemResetWarning,0824.8,5.00,000.00,030.5,028.9,000.0,039.1,032.0,14.4,0000.0,0009.52,0004.23,0003.41
2023-06-19 11:40:00,SystemResetWarning,0824.8,5.00,000.00,030.5,028.9,000.0,039.1,032.0,14.3,0000.0,0009.99,0004.20,0003.40
2023-06-19 11:41:00,SystemResetWarning,0824.7,5.00,000.00,030.5,028.9,000.0,039.1,032.0,14.2,0000.0,0009.99,0004.21,0003.40
2023-06-19 11:42:00,SystemResetWarning,0824.7,4.99,000.00,030.6,028.9,000.0,039.1,032.0,14.1,0000.0,0009.94,0004.24,0003.41
2023-06-19 11:43:00,SystemResetWarning,0824.7,4.99,000.00,030.6,028.9,000.0,039.1,032.0,14.0,0000.0,0009.86,0004.24,0003.42
2023-06-19 11:44:00,SystemResetWarning,0824.7,5.00,000.00,030.6,028.8,000.0,039.1,031.9,13.9,0000.0,0010.19,0004.17,0003.41
2023-06-19 11:45:00,SystemResetWarning,0824.7,5.00,000.00,030.5,028.8,000.0,039.1,032.0,13.7,0000.0,0010.26,0004.16,0003.41
2023-06-19 11:46:00,SystemResetWarning,0824.7,5.00,000.00,030.5,028.8,000.0,039.1,032.0,13.7,0000.0,0010.27,0004.20,0003.40
2023-06-19 11:47:00,SystemResetWarning,0824.7,5.00,000.00,030.6,028.8,000.0,039.1,032.0,13.6,0000.0,0010.47,0004.27,0003.41
2023-06-19 11:48:00,SystemResetWarning,0824.8,5.00,000.00,030.6,028.8,000.0,039.1,032.0,13.8,0000.0,0010.54,0004.29,0003.40
2023-06-19 11:49:00,SystemResetWarning,0824.7,5.00,000.00,030.6,028.8,000.0,039.1,032.0,13.8,0000.0,0009.80,0004.29,0003.41
2023-06-19 11:50:00,SystemResetWarning,0824.7,5.00,000.00,030.6,028.8,000.0,039.1,032.0,14.0,0000.0,0009.97,0004.33,0003.42
2023-06-19 11:51:00,SystemResetWarning,0824.8,5.00,000.00,030.6,028.8,000.0,039.1,032.0,13.9,0000.0,0009.65,0004.34,0003.42
2023-06-19 11:52:00,SystemResetWarning,0824.8,5.00,000.00,030.6,028.8,000.0,039.1,032.0,14.0,0000.0,0009.38,0004.36,0003.43
2023-06-19 11:53:00,SystemResetWarning,0824.8,5.01,000.00,030.6,028.7,000.0,039.1,032.0,14.1,0000.0,0009.40,0004.36,0003.43
2023-06-19 11:54:00,SystemResetWarning,0824.8,5.00,000.00,030.5,028.7,000.0,039.1,032.0,14.8,0000.0,0009.36,0004.35,0003.43
2023-06-19 11:55:00,SystemResetWarning,0824.8,5.00,000.00,030.5,028.7,000.0,039.1,031.9,14.4,0000.0,0009.03,0004.33,0003.42
2023-06-19 11:56:00,SystemResetWarning,0824.8,5.00,000.00,030.5,028.7,000.0,039.1,031.9,14.4,0000.0,0008.88,0004.37,0003.43
2023-06-19 11:57:00,SystemResetWarning,0824.8,5.00,000.00,030.5,028.7,000.0,039.1,031.9,14.4,0000.0,0008.74,0004.32,0003.42
2023-06-19 11:58:00,SystemResetWarning,0824.9,5.01,000.00,030.5,028.7,000.0,039.1,031.9,14.3,0000.0,0008.89,0004.23,0003.41
2023-06-19 11:59:00,SystemResetWarning,0824.9,5.00,000.00,030.5,028.7,000.0,039.1,031.9,14.1,0000.0,0008.89,0004.20,0003.40
